Flag for Japan Weather past 2 weeks in Hiroshima, Japan

Now
87 °F

Passing clouds.


Feels Like: 98 °F
Forecast: 70 / 95 °F
Wind: 10 mph from Southeast

Location: Iwakuni Marine Corps Air Station

Current Time: Aug 3, 2015 at 6:06:07 PM

Latest Report: Aug 3, 2015 at 4:55 PM


Visibility: N/A

Pressure: 29.81 "Hg

Humidity: 69%

Dew point: 76 °F

Location of HiroshimaLocation

Historic Weather in Hiroshima — Graph

°F

Hiroshima temperature yesterday

Maximum temperature yesterday: 92 °F (at 1:55 PM)
Minimum temperature yesterday: 78 °F (at 5:55 AM)
Average temperature yesterday: 85 °F

Past Weeks' High & Low Weather Summary

 TemperatureHumidityPressure
High140 °F (Jul 25, 9:55 AM)100% (Jul 31, 3:55 AM)29.93 "Hg (Jul 31, 3:55 AM)
Low72 °F (Jul 23, 12:55 AM)1% (Jul 22, 10:55 AM)29.74 "Hg (Jul 29, 5:55 PM)
Average82 °F82%29.84 "Hg
* Reported Jul 19 4:55 PM — Aug 3 4:55 PM, Hiroshima, Weather by CustomWeather, © 2015

Note: Actual official high and low records may vary slightly from our data, if they occured in-between our weather recording intervals... More about our weather records

Advertising

Hiroshima weather history for previous 24 hours

 ConditionsComfort  
Time TempWeatherWind HumidityBarometerVisibility
4:55 PM
Mon, Aug 3
87 °FPassing clouds.10 mph69%29.81 "HgN/A
3:55 PM89 °FPassing clouds.14 mph65%29.81 "HgN/A
2:55 PM86 °FPassing clouds.12 mph72%29.83 "HgN/A
1:55 PM86 °FPassing clouds.9 mph72%29.85 "HgN/A
12:55 PM87 °FPassing clouds.8 mph77%29.88 "HgN/A
11:55 AM88 °FPassing clouds.9 mph70%29.88 "HgN/A
10:55 AM87 °FPassing clouds.8 mph72%29.90 "HgN/A
9:55 AM86 °FPassing clouds.8 mph75%29.91 "HgN/A
8:55 AM84 °FHaze.6 mph83%29.90 "Hg6 mi
7:55 AM83 °FWarm.No wind82%29.91 "HgN/A
6:55 AM79 °FFog.6 mph90%29.91 "Hg6 mi
5:55 AM78 °FFog.6 mph90%29.90 "Hg6 mi
4:55 AM78 °FPassing clouds.5 mph93%29.89 "HgN/A
3:55 AM79 °FPassing clouds.6 mph90%29.88 "HgN/A
2:55 AM79 °FPassing clouds.5 mph88%29.89 "HgN/A
1:55 AM81 °FPassing clouds.No wind85%29.88 "HgN/A
12:55 AM81 °FPassing clouds.8 mph85%29.89 "HgN/A
11:55 PM
Sun, Aug 2
82 °FPassing clouds.No wind79%29.89 "HgN/A
10:55 PM83 °FPassing clouds.3 mph77%29.89 "HgN/A
9:55 PM84 °FPassing clouds.8 mph77%29.88 "HgN/A
8:55 PM83 °FPassing clouds.7 mph88%29.87 "HgN/A
7:55 PM84 °FFog.6 mph85%29.85 "Hg6 mi
6:55 PM87 °FScattered clouds.6 mph80%29.85 "HgN/A
Weather by CustomWeather, © 2015

See weather overviewHow to use our weather pages